CW6401 Weather Reports


time (UTC)temp
C
wind
direction
speed
KPH
gust
KPH
rain 1hr
cm
rain 24hr
cm
rain mn
cm
humidity
%
barometer
mb
20260504001526 12 175 0.0 4.8 0.00 0.00 0.00 48 1011.8
20260504001022 12 202 4.8 8.0 0.00 0.00 0.00 49 1011.6
20260504000519 12 186 1.6 4.8 0.00 0.00 0.00 49 1011.7
20260504000017 12 202 3.2 8.0 0.00 0.00 0.00 47 1011.6
20260503235515 12 184 1.6 12.9 0.00 0.00 0.00 46 1011.7
20260503235011 12 201 6.4 12.9 0.00 0.00 0.00 47 1011.6
20260503234509 12 214 4.8 8.0 0.00 0.00 0.00 46 1011.8
20260503234007 12 205 6.4 8.0 0.00 0.00 0.00 49 1011.7
20260503233503 12 216 3.2 8.0 0.00 0.00 0.00 46 1011.7
20260503232959 12 274 3.2 8.0 0.00 0.00 0.00 45 1011.6
20260503232456 12 198 6.4 9.7 0.00 0.00 0.00 47 1011.6
20260503231954 12 195 8.0 9.7 0.00 0.00 0.00 45 1011.6
20260503231451 12 197 1.6 4.8 0.00 0.00 0.00 46 1011.6
20260503230948 12 241 4.8 8.0 0.00 0.00 0.00 45 1011.7
20260503230444 12 190 6.4 9.7 0.00 0.00 0.00 45 1011.6
20260503225942 12 191 6.4 14.5 0.00 0.00 0.00 44 1011.7
20260503225439 13 230 9.7 14.5 0.00 0.00 0.00 43 1011.8
20260503224934 13 244 3.2 4.8 0.00 0.00 0.00 46 1011.8
20260503224431 13 150 0.0 8.0 0.00 0.00 0.00 45 1011.7
20260503223929 13 185 4.8 9.7 0.00 0.00 0.00 45 1011.8
20260503223427 13 200 4.8 8.0 0.00 0.00 0.00 45 1011.8
20260503222922 13 198 3.2 12.9 0.00 0.00 0.00 43 1011.7
20260503222421 13 173 1.6 9.7 0.00 0.00 0.00 43 1011.7
20260503221919 13 169 3.2 12.9 0.00 0.00 0.00 42 1011.8
20260503221417 13 289 3.2 8.0 0.00 0.00 0.00 45 1011.8
20260503220913 13 182 4.8 8.0 0.00 0.00 0.00 44 1011.6
20260503220410 14 156 1.6 9.7 0.00 0.00 0.00 42 1011.6
20260503215907 13 199 6.4 9.7 0.00 0.00 0.00 41 1011.5
20260503215404 13 222 6.4 9.7 0.00 0.00 0.00 42 1011.6
20260503214901 14 220 4.8 8.0 0.00 0.00 0.00 42 1011.7
20260503214359 14 235 6.4 12.9 0.00 0.00 0.00 40 1011.4
20260503213856 13 214 1.6 8.0 0.00 0.00 0.00 43 1011.6
20260503213354 14 320 8.0 14.5 0.00 0.00 0.00 40 1011.7
20260503212850 13 206 3.2 4.8 0.00 0.00 0.00 43 1011.4
20260503212348 14 326 3.2 8.0 0.00 0.00 0.00 42 1011.5
20260503211845 14 215 6.4 9.7 0.00 0.00 0.00 41 1011.3
20260503211342 13 202 3.2 8.0 0.00 0.00 0.00 42 1011.4
20260503210837 13 207 6.4 14.5 0.00 0.00 0.00 40 1011.4
20260503210334 14 219 3.2 4.8 0.00 0.00 0.00 40 1011.5
20260503205829 15 206 9.7 22.5 0.00 0.00 0.00 39 1011.4
20260503205326 14 139 4.8 12.9 0.00 0.00 0.00 42 1011.4
20260503204822 13 203 3.2 4.8 0.00 0.00 0.00 42 1011.6
20260503204320 14 302 3.2 9.7 0.00 0.00 0.00 41 1011.5
20260503203817 13 291 6.4 12.9 0.00 0.00 0.00 43 1011.6
20260503203315 13 208 3.2 9.7 0.00 0.00 0.00 44 1011.8
20260503202811 13 245 3.2 8.0 0.00 0.00 0.00 45 1011.9
20260503202309 14 214 6.4 8.0 0.00 0.00 0.00 44 1011.9
20260503201807 13 204 9.7 12.9 0.00 0.00 0.00 45 1012.1
20260503201304 14 210 3.2 9.7 0.00 0.00 0.00 44 1012.1
20260503200801 15 162 3.2 4.8 0.00 0.00 0.00 39 1012.3
20260503200257 15 197 4.8 9.7 0.00 0.00 0.00 41 1012.4
20260503195755 14 200 3.2 9.7 0.00 0.00 0.00 41 1012.5
20260503195251 14 229 3.2 8.0 0.00 0.00 0.00 44 1012.4
20260503194749 15 205 3.2 8.0 0.00 0.00 0.00 43 1012.6
20260503194244 15 202 3.2 9.7 0.00 0.00 0.00 44 1012.6
20260503193741 14 194 6.4 8.0 0.00 0.00 0.00 43 1012.6
20260503193237 15 242 4.8 14.5 0.00 0.00 0.00 39 1012.6
20260503192732 13 222 4.8 12.9 0.00 0.00 0.00 42 1012.8
20260503192228 13 247 4.8 8.0 0.00 0.00 0.00 45 1012.8
20260503191725 13 200 4.8 17.7 0.00 0.00 0.00 42 1012.9
20260503191222 13 201 6.4 14.5 0.00 0.00 0.00 43 1013.0
20260503190719 13 312 3.2 12.9 0.00 0.00 0.00 43 1013.0
20260503190215 14 241 3.2 8.0 0.00 0.00 0.00 44 1013.0
20260503185713 14 235 9.7 17.7 0.00 0.00 0.00 41 1013.1
20260503185208 13 203 6.4 14.5 0.00 0.00 0.00 43 1013.2
20260503184703 13 209 6.4 8.0 0.00 0.00 0.00 43 1013.3
20260503184200 13 341 11.3 14.5 0.00 0.00 0.00 43 1013.5
20260503183656 13 213 3.2 17.7 0.00 0.00 0.00 44 1013.4
20260503183153 13 231 9.7 14.5 0.00 0.00 0.00 44 1013.4
20260503182651 12 215 11.3 17.7 0.00 0.00 0.00 45 1013.5
20260503182150 12 232 3.2 8.0 0.00 0.00 0.00 45 1013.4
20260503181646 12 218 3.2 9.7 0.00 0.00 0.00 45 1013.7
20260503181143 13 261 4.8 8.0 0.00 0.00 0.00 46 1013.6
20260503180640 12 159 3.2 8.0 0.00 0.00 0.00 45 1013.6
20260503180138 13 173 6.4 9.7 0.00 0.00 0.00 42 1013.8
20260503175634 12 188 4.8 14.5 0.00 0.00 0.00 43 1013.8
20260503175132 12 53 11.3 17.7 0.00 0.00 0.00 43 1013.7
20260503174628 12 206 6.4 9.7 0.00 0.00 0.00 45 1013.9
20260503174125 12 222 9.7 17.7 0.00 0.00 0.00 46 1013.9
20260503173620 12 221 8.0 12.9 0.00 0.00 0.00 44 1013.9
20260503173117 12 268 3.2 12.9 0.00 0.00 0.00 44 1014.0
20260503172614 13 219 9.7 17.7 0.00 0.00 0.00 44 1014.0
20260503172111 13 277 4.8 14.5 0.00 0.00 0.00 44 1014.0
20260503171608 12 233 6.4 9.7 0.00 0.00 0.00 44 1014.1
20260503171105 13 202 9.7 14.5 0.00 0.00 0.00 40 1014.2
20260503170556 12 200 4.8 9.7 0.00 0.00 0.00 41 1014.3
20260503150948 10 221 9.7 12.9 0.00 0.00 0.00 45 1015.3
20260503150444 10 105 11.3 12.9 0.00 0.00 0.00 46 1015.3
20260503131331 5 176 0.0 4.8 0.00 0.00 0.00 70 1016.0
20260503130829 5 190 1.6 9.7 0.00 0.00 0.00 72 1015.7
20260503130326 4 208 3.2 4.8 0.00 0.00 0.00 73 1015.8
20260503110720 0 150 0.0 0.0 0.00 0.00 0.00 92 1015.2
20260503110217 0 150 0.0 0.0 0.00 0.00 0.00 96 1015.1
20260503100144 -1 149 0.0 0.0 0.00 0.00 0.00 97 1014.8
20260503081538 -1 149 0.0 0.0 0.00 0.00 0.00 97 1014.7
20260503081036 -1 148 0.0 0.0 0.00 0.00 0.00 97 1014.7
20260503080532 -1 150 0.0 0.0 0.00 0.00 0.00 96 1014.7
20260503072505 -1 152 0.0 0.0 0.00 0.00 0.00 96 1014.7
20260503072003 -1 152 0.0 0.0 0.00 0.00 0.00 96 1014.7
20260503071500 -1 153 0.0 0.0 0.00 0.00 0.00 95 1014.7
20260503070955 -1 153 0.0 0.0 0.00 0.00 0.00 95 1014.6
20260503070453 -1 151 0.0 0.0 0.00 0.00 0.00 95 1014.6
20260503054906 0 172 0.0 0.0 0.00 0.00 0.00 90 1014.9
20260503054402 0 172 0.0 0.0 0.00 0.00 0.00 90 1015.1
20260503053900 0 172 0.0 0.0 0.00 0.00 0.00 89 1015.2
20260503053358 0 172 0.0 0.0 0.00 0.00 0.00 88 1015.2
20260503052853 0 172 0.0 0.0 0.00 0.00 0.00 87 1015.2
20260503052351 0 173 0.0 0.0 0.00 0.00 0.00 87 1015.3
20260503051847 0 173 0.0 0.0 0.00 0.00 0.00 85 1015.2
20260503051343 1 173 0.0 0.0 0.00 0.00 0.00 84 1015.1
20260503050840 1 173 0.0 0.0 0.00 0.00 0.00 84 1015.2
20260503050336 1 173 0.0 0.0 0.00 0.00 0.00 84 1015.3
20260503045834 1 173 0.0 0.0 0.00 0.00 0.00 83 1015.3
20260503045332 1 173 0.0 0.0 0.00 0.00 0.00 83 1015.4
20260503044828 1 173 0.0 0.0 0.00 0.00 0.00 83 1015.4
20260503044325 1 173 0.0 0.0 0.00 0.00 0.00 83 1015.3
20260503043822 1 173 0.0 0.0 0.00 0.00 0.00 82 1015.4
20260503043319 2 173 0.0 0.0 0.00 0.00 0.00 82 1015.3
20260503042815 2 173 0.0 0.0 0.00 0.00 0.00 81 1015.4
20260503042312 2 173 0.0 0.0 0.00 0.00 0.00 81 1015.3
20260503041808 2 173 0.0 0.0 0.00 0.00 0.00 82 1015.3
20260503041306 2 174 0.0 0.0 0.00 0.00 0.00 83 1015.3
20260503040803 2 173 0.0 0.0 0.00 0.00 0.00 83 1015.4
20260503040301 2 174 0.0 0.0 0.00 0.00 0.00 83 1015.4
20260503035757 2 174 0.0 0.0 0.00 0.15 0.15 81 1015.4
20260503035255 2 174 0.0 0.0 0.00 0.15 0.15 81 1015.4
20260503034752 2 174 0.0 0.0 0.00 0.15 0.15 82 1015.4
20260503034249 2 173 0.0 0.0 0.00 0.15 0.15 82 1015.5
20260503033746 2 174 0.0 0.0 0.00 0.15 0.15 83 1015.5
20260503033244 2 174 0.0 0.0 0.00 0.15 0.15 83 1015.3
20260503032742 2 174 0.0 0.0 0.00 0.15 0.15 83 1015.5
20260503032240 2 174 0.0 0.0 0.00 0.15 0.15 82 1015.5
20260503031737 2 174 0.0 0.0 0.00 0.15 0.15 82 1015.7
20260503031235 2 174 0.0 0.0 0.00 0.15 0.15 80 1015.5
20260503030731 2 174 0.0 0.0 0.00 0.15 0.15 79 1015.4
20260503030227 2 174 0.0 0.0 0.00 0.15 0.15 79 1015.6
20260503025724 2 174 0.0 0.0 0.00 0.15 0.15 78 1015.6
20260503025222 2 174 0.0 0.0 0.00 0.15 0.15 78 1015.5
20260503024718 2 174 0.0 0.0 0.00 0.15 0.15 79 1015.5
20260503024216 2 174 0.0 0.0 0.00 0.15 0.15 80 1015.7
20260503023712 2 174 0.0 0.0 0.00 0.15 0.15 78 1015.9
20260503023204 2 174 0.0 0.0 0.00 0.15 0.15 77 1015.9
20260503022700 2 167 0.0 0.0 0.00 0.15 0.15 77 1015.7
20260503022159 2 167 0.0 0.0 0.00 0.15 0.15 75 1015.9
20260503021657 2 167 0.0 0.0 0.00 0.15 0.15 77 1015.9
20260503021153 2 149 0.0 0.0 0.00 0.15 0.15 77 1015.7
20260503020651 2 149 0.0 0.0 0.00 0.15 0.15 76 1015.9
20260503020148 2 149 0.0 0.0 0.00 0.15 0.15 75 1015.7
20260503015644 2 149 0.0 0.0 0.00 0.15 0.15 75 1015.7
20260503015142 2 149 0.0 0.0 0.00 0.15 0.15 76 1015.8
20260503014637 2 149 0.0 0.0 0.00 0.15 0.15 78 1015.7
20260503014135 2 149 0.0 0.0 0.00 0.15 0.15 76 1015.6
20260503013632 2 149 0.0 0.0 0.00 0.15 0.15 75 1015.7
20260503013130 2 149 0.0 0.0 0.00 0.15 0.15 74 1015.6
20260503012627 2 149 0.0 0.0 0.00 0.15 0.15 75 1015.7
20260503012124 2 149 0.0 0.0 0.00 0.15 0.15 74 1015.7
20260503011621 2 147 0.0 0.0 0.00 0.15 0.15 74 1015.4
20260503011118 2 173 0.0 0.0 0.00 0.15 0.15 72 1015.7
20260503010614 2 174 0.0 0.0 0.00 0.15 0.15 72 1015.5
20260503010112 3 174 0.0 0.0 0.00 0.15 0.15 73 1015.5
20260503005608 3 174 0.0 0.0 0.00 0.15 0.15 72 1015.6
20260503005106 3 154 0.0 3.2 0.00 0.15 0.15 71 1015.5
20260503004601 3 135 0.0 0.0 0.00 0.15 0.15 70 1015.4
20260503004100 3 134 0.0 0.0 0.00 0.15 0.15 71 1015.5
20260503003556 3 134 0.0 0.0 0.00 0.15 0.15 71 1015.5
20260503003053 3 134 0.0 0.0 0.00 0.15 0.15 71 1015.3
20260503002550 3 181 0.0 0.0 0.00 0.15 0.15 70 1015.6
20260503002047 3 193 0.0 0.0 0.00 0.15 0.15 72 1015.3